weather.gov     
National Weather Service

Terminal Aerodrome Forecast
NWS Homepage
This page is being discontinued on March 12, 2014.
The same data is available at this site. Please update your bookmarks.
Thank you, and we apologize for the inconvenience.
Please send an email to SR-SRH.Webmaster@noaa.gov with any concerns.


Current Version
Previous Version:    01  02  03  04  05  06  07  08  09  10  11  12  13  14  15  16  17  18  19  20  21  22  23  24  25  26  27  28  29  30  
   31  
[Printable]
993
FTUS44 KSHV 191300 AAA
TAFSHV
TAF AMD
KSHV 191345Z 1914/2012 35008KT P6SM VCTS BKN008 OVC011CB
      TEMPO 1914/1918 VRB15G25KT 1SM -TSRA
     FM191800 05007KT 5SM -RA BR OVC007
     FM192200 04006KT 6SM BR OVC007
     FM200700 02005KT 4SM BR OVC003=


U.S. Dept. of Commerce
NOAA National Weather Service
1325 East West Highway
Silver Spring, MD 20910
E-mail: w-nws.webmaster@noaa.gov
Page last modified: May 16, 2007
NATIONAL WEATHER SERVICE: for Safety, for Work, for Fun - FOR LIFE